Location: Skalnate Pleso
(49.1889°N, 20.2450°E)
Time: 11:36:34
(UTC+01:00)

STARLINK-43 - Pass Details

Date: 19 November 2019
Orbit: 477 x 479 km, 53.0° (Epoch: 06 December)

Event Time Altitude Azimuth Distance (km) Brightness Sun altitude
Exits shadow 04:39:03 57° 16° (NNE) 566 3.6 -21.8°
Drops below altitude 10° 04:42:21 10° 65° (ENE) 1,650 6.9 -21.3°
Enters shadow 05:37:57 -71° 261° (W) 12,533 10.4 -12.4°
